www.pogodaiklimat.ru

Погода и климат >> Архив погоды >> Италия >> Граццанизе


ПОГОДА в Граццанизе

  • Прогноз погоды в Граццанизе
  • Монитор погоды в Граццанизе

АРХИВ ПОГОДЫ в Граццанизе

Время (UTC), дата Ветер
(напр.,м/с)
 
Видим.   Явления Облачность Т
(С)
Тd
(С)
f
(%)
Тe
(С)
Тes
(С)
Комфортность P
(гПа)
Po
(гПа)
Тmin
(С)
Tmax
(С)
R
(мм)
R24
(мм)
S
(см)
18 17.08 З 3 15 км 5/0
[Ac As Ci]
+26.8 +25.0 90 +39 +39 очень
душно
1015.2 1014.1 +32.0
21 17.08 З 1 10 км 5/0
[Ac As]
+25.0 +24.0 94 +34 +34 очень
душно
1016.0 1014.9
00 18.08 С 1 10 км 4/0
[Ac lent]
+24.2 +23.5 96 +33 +33 очень
душно
1016.1 1014.9
03 18.08 В 1 10 км ясно +22.8 +21.4 92 +30 +30 очень
душно
1015.9 1014.7
06 18.08 СВ 2 15 км 4/0
[Ci fib]
+22.4 +20.5 89 +29 +31 очень
душно
1016.5 1015.3 +20.4
09 18.08 С 1 20 км 4/1 900 м
[Cu med, cong Ci fib]
+30.2 +19.9 54 +36 +49 очень
душно
1016.4 1015.2
12 18.08 З 4 25 км 4/3 900 м
[Cu med, cong Ci fib]
+33.0 +22.8 55 +43 +51 опасность
перегрева
1015.9 1014.7
15 18.08 З 6 20 км 5/3 900 м
[Cu med, cong Ci fib]
+31.0 +24.7 69 +44 +45 опасность
перегрева
1015.5 1014.4
18 18.08 З 3 15 км ясно +27.6 +23.8 80 +38 +38 очень
душно
1014.4 1013.3 +33.8
21 18.08 ЮВ 1 15 км ясно +24.0 +23.0 94 +32 +32 очень
душно
1015.2 1014.1
00 19.08 СВ 2 15 км ясно +22.0 +21.3 96 +29 +29 очень
душно
1015.3 1014.2
03 19.08 СЗ 2 10 км ясно +21.0 +19.8 93 +27 +27 душно 1015.3 1014.2
06 19.08 СВ 2 15 км ясно +23.0 +21.3 90 +31 +33 очень
душно
1015.7 1014.6 +20.8
09 19.08 Ю 1 20 км ясно +30.4 +21.8 60 +39 +54 опасность
солнечного
удара
1016.4 1015.3
12 19.08 З 4 20 км 1/1 750 м
[Cu hum]
+32.2 +23.5 60 +43 +53 опасность
перегрева
1016.2 1015.1
15 19.08 З 6 20 км ясно +30.0 +18.4 50 +35 +37 очень
душно
1016.1 1014.9
18 19.08 З 3 22 км ясно +27.0 +25.2 90 +39 +39 очень
душно
1016.0 1014.9 +32.4
21 19.08 ЮВ 3 15 км ясно +24.2 +21.5 85 +31 +31 очень
душно
1016.4 1015.3
00 20.08 С 2 12 км ясно +21.0 +20.7 98 +27 +27 душно 1016.6 1015.4
03 20.08 СВ 2 12 км ясно +20.0 +19.2 95 +24 +24 комфорт 1016.8 1015.6
06 20.08 СВ 2 18 км ясно +20.6 +19.3 92 +25 +28 комфорт 1016.8 1015.6 +18.6
09 20.08 С 2 20 км ясно +30.4 +14.5 38 +32 +46 жарко 1016.9 1015.8
12 20.08 ЮЗ 5 20 км ясно +32.0 +20.3 50 +39 +48 очень
душно
1017.2 1016.0
15 20.08 З 4 20 км ясно +30.6 +25.9 76 +46 +49 опасность
перегрева
1017.0 1015.8
18 20.08 З 2 20 км ясно +26.6 +23.9 85 +37 +37 очень
душно
1016.6 1015.4 +33.2
21 20.08 СВ 1 20 км ясно +23.4 +22.6 95 +32 +32 очень
душно
1017.2 1016.1
00 21.08 В 1 20 км ясно +21.4 +20.6 95 +27 +27 душно 1017.2 1016.1
03 21.08 СВ 1 20 км ясно +20.0 +18.3 90 +24 +24 комфорт 1016.7 1015.6
06 21.08 СВ 2 10 км ясно +21.4 +19.7 90 +26 +29 душно 1017.4 1016.3 +19.8
09 21.08 ЮЗ 2 12 км ясно +30.0 +23.4 68 +41 +53 опасность
перегрева
1017.8 1016.7
12 21.08 ЮЗ 2 15 км 1/1 900 м
[Cu med, cong]
+32.2 +19.1 46 +38 +53 опасность
солнечного
удара
1017.1 1016.0
15 21.08 З 5 20 км ясно +29.8 +24.7 74 +42 +46 опасность
перегрева
1016.4 1015.3
18 21.08 ЮЗ 2 12 км ясно +26.4 +23.9 86 +36 +36 очень
душно
1016.2 1015.0 +33.2
21 21.08 ЮВ 1 10 км ясно +24.0 +23.3 96 +32 +32 очень
душно
1017.2 1016.0
00 22.08 В 1 10 км ясно +22.4 +21.7 96 +30 +30 очень
душно
1017.2 1016.0
03 22.08 СВ 1 10 км ясно +21.2 +19.9 92 +26 +26 душно 1017.2 1016.0
06 22.08 штиль 0 10 км ясно +22.0 +20.3 90 +28 +31 душно 1017.2 1016.1 +20.4
09 22.08 З 2 10 км ясно +30.2 +20.2 55 +37 +50 очень
душно
1017.4 1016.3
12 22.08 ЮЗ 3 10 км ясно +33.4 +19.5 44 +39 +53 опасность
солнечного
удара
1017.1 1016.0
15 22.08 З 5 15 км 1/1 900 м
[Cu med, cong]
+30.4 +26.1 78 +46 +48 опасность
перегрева
1016.3 1015.2
18 22.08 ЮЗ 4 20 км 3/1 900 м
[Cu med, cong Ac trans]
+26.2 +23.5 85 +36 +36 очень
душно
1016.6 1015.5 +34.0
21 22.08 СВ 1 12 км 6/0
[Ac trans]
+24.8 +23.6 93 +34 +34 очень
душно
1017.2 1016.0
00 23.08 СВ 3 10 км 3/0 2000 м
[Ac trans]
+23.8 +23.0 95 +32 +32 очень
душно
1017.1 1015.9
03 23.08 С 3 10 км гроза без осадков 5/1 600 м
[Cb cap Ac trans]
+24.6 +23.0 91 +33 +33 очень
душно
1017.3 1016.1
06 23.08 СВ 4 15 км 8/1 900 м
[Cu med, cong Ac As]
+26.0 +19.6 68 +32 +32 очень
душно
1017.3 1016.1 +23.4
09 23.08 СВ 2 20 км 3/0 2000 м
[Ac trans]
+32.0 +18.6 45 +37 +47 очень
душно
1017.4 1016.3
12 23.08 ЮЗ 6 15 км 4/3 750 м
[Cu hum Ac trans]
+33.0 +20.5 48 +40 +44 очень
душно
1016.9 1015.8
15 23.08 З 4 20 км 5/5 660 м
[Cb calv]
+31.0 +27.1 80 +49 +51 опасность
перегрева
1016.1 1014.9
18 23.08 СВ 4 10 км 5/1 900 м
[Cu med, cong Ac trans]
+27.0 +20.3 67 +33 +33 очень
душно
1017.6 1016.5 +36.0
21 23.08 СВ 5 15 км 3/0
[Ac lent]
+24.6 +19.9 75 +30 +30 очень
душно
1017.2 1016.1
00 24.08 СВ 4 20 км ясно +23.4 +20.2 82 +31 +31 очень
душно
1016.4 1015.3
03 24.08 С 3 20 км ясно +23.0 +19.6 81 +30 +30 очень
душно
1016.3 1015.1
06 24.08 С 1 15 км 8/3 900 м
[Cu med, cong Ac trans]
+23.6 +20.7 84 +29 +30 душно 1016.2 1015.1 +22.8
09 24.08 В 2 20 км 3/0 2000 м
[Ac trans]
+30.2 +19.9 54 +36 +48 очень
душно
1016.9 1015.8
12 24.08 З 3 18 км 3/3 900 м
[Cu med, cong]
+33.8 +22.3 51 +43 +53 опасность
перегрева
1016.1 1015.0
15 24.08 З 4 18 км 4/3 900 м
[Cu med, cong Cs]
+31.2 +21.7 57 +40 +42 очень
душно
1015.1 1014.0

 

Местоположение метеостанции Граццанизе (Италия): широта 41.05 долгота 14.07 высота над уровнем моря 10 м.

В архиве по умолчанию представлена погода в Граццанизе за последнюю неделю. Архивные данные за месяц целиком и за предыдущие месяцы, начиная с января 2011 года, Вы можете получить, выбрав интересующий диапазон дат из раскрывающегося списка и нажав кнопку "Ввод!".


*Определитесь, кто Вы:
робот инопланетянин человек

Внимание! Время в таблицах - всемирное. Для получения местного времени необходимо прибавить поправку, которая равна 1 ч.

Смотрите также архив погоды в соседних городах и на ближайших метеорологических станциях:

Погода в Казерте (Италия) (21 км)
Погода в Неаполе (Италия) (29 км)
Погода на Капри (Италия) (57 км)
Погода в Кампобассо (Италия) (75 км)
Погода в Торре-Олеволе (Италия) (83 км)
Погода во Фрозиноне (Италия) (91 км)
Погода на Понце (Италия) (95 км)
Погода в Тревико (Италия) (97 км)
Погода в Фучино (Италия) (110 км)
Погода в Латине (Италия) (112 км)

Пояснения к столбцам:

Ветер - указаны скорость ветра в м/с - средняя за 10 мин, порывы в срок и между сроками (в фигурных скобках) и направление, откуда дует ветер: С - северный, СВ - северо-восточный, В - восточный, ЮВ - юго-восточный, Ю - южный, ЮЗ - юго-западный, З - западный, СЗ - северо-западный.
Видимость - горизонтальная дальность видимости в метрах или километрах. При видимости от 1 до 10 км при отсутствии осадков обычно наблюдается дымка, при ухудшении видимости до 1 км и менее - туман. В сухую погоду видимость может ухудшаться дымом, пылью или мглою.
Явления - указаны атмосферные явления, наблюдавшиеся в срок или в последний час перед сроком; фигурными скобками обозначены явления, наблюдавшиеся между сроками (за 1-3 часа до срока); квадратными скобками обозначены град или гололедные отложения с указанием их диаметра в мм.
Облачность - указаны через наклонную черту общая и нижняя облачность в баллах и высота нижней границы облаков в метрах; квадратными скобками обозначены формы облаков: Ci - перистые, Cs - перисто-слоистые, Cc - перисто-кучевые, Ac - высококучевые, As - высокослоистые, Sc - слоисто-кучевые, Ns - слоисто-дождевые, Cu - кучевые, Cb - кучево-дождевые. Подробнее классификацию облаков см. в Атласе облаков (PDF).
T - Температура воздуха - температура, измеренная на высоте 2 м над землей.
Td - Температура точки росы - температура, при понижении до которой содержащийся в воздухе водяной пар достигнет насыщения.
f - Относительная влажность воздуха - влажноcть воздуха, измеренная на высоте 2 м над землей.
Te - Эффективная температура - температура, которую ощущает одетый по сезону человек в тени. Характеристика душности погоды. При расчете учитывается влияние влажности воздуха и скорости ветра на теплоощущения человека.
Tes - Эффективная температура на солнце - температура, которую ощущает человек, с поправкой на солнечный нагрев. Характеристика знойности погоды. Зависит от высоты солнца над горизонтом, облачности и скорости ветра. Ночью, в пасмурную погоду, а также при ветре 12 м/с и более поправка равна нулю.
P - Атмосферное давление - приведенное к уровню моря атмосферное давление.
Po - Атмосферное давление - измеренное на уровне метеостанции атмосферное давление.
Tmin - Минимальная температура - минимум температуры воздуха на высоте 2 м над землей.
Tmax - Максимальная температура - максимум температуры воздуха на высоте 2 м над землей.
R - Количество осадков - Количество выпавших осадков за период времени, мм. При наведении курсора мыши на число - период времени, за который выпало указанное количество осадков.
R24 - Количество осадков - Количество выпавших осадков за 24 часа, мм.
S - Снежный покров - Высота снежного покрова, см. При наведении курсора мыши на число - состояние снежного покрова и степень покрытия местности в баллах.